Location: Zeiss-Gro�planetarium Berlin
(52.5430°N, 13.4281°E)
Time: 01:48:52
(UTC+01:00)

ISS - Pass Details

Date: 29 September 2020
Orbit: 417 x 420 km, 51.6° (Epoch: 27 October)

Event Time Altitude Azimuth Distance (km) Brightness Sun altitude
Rises 19:27:43 0° 270° (W) 2,368 2.7 -7.0°
Reaches altitude 10° 19:29:49 10° 269° (W) 1,504 0.8 -7.3°
Maximum altitude 19:33:12 77° 184° (S) 436 -3.7 -7.8°
Enters shadow 19:36:21 12° 98° (E) 1,417 -1.8 -8.3°
